Regional Weather Roundup
Issued by NWS

Home | Current Version | Previous Version | Graphics & Text | Print | Product List | Glossary On
Versions: 1 2 3 4 5 6 7 8 9 10 11 12 13 14 15 16 17 18 19 20 21 22 23 24 25 26 27 28 29 30 31 32 33 34 35 36 37 38 39 40 41 42 43 44 45 46 47 48 49 50
000
ASUS43 KDTX 230901
RWRMI
MICHIGAN HOURLY REGIONAL WEATHER ROUNDUP
NATIONAL WEATHER SERVICE DETROIT/PONTIAC MI
500 AM EDT MON MAY 23 2022

NOTE: "FAIR" INDICATES FEW OR NO CLOUDS BELOW 12,000 FEET WITH NO
SIGNIFICANT WEATHER AND/OR OBSTRUCTION TO VISIBILITY.

MIZ047>049-052>055-059>063-066>070-074>076-081>083-231000-
SOUTHEAST LOWER MICHIGAN

CITY           SKY/WX    TMP DP  RH WIND       PRES   REMARKS
ADRIAN         MOCLDY    47  38  71 N8        30.33S
ALMA           CLEAR     39  38  93 CALM      30.37S
ANN ARBOR      MOCLDY    47  39  74 N6        30.32S
BAD AXE        CLOUDY    42  42 100 CALM      30.35R
CARO           PTCLDY    42  41  97 CALM      30.35S
DETROIT CITY   CLOUDY    52  40  63 N6        30.32S
DETROIT        CLOUDY    51  46  83 N8        30.32R
FLINT          CLOUDY    46  40  79 E6        30.35R
GROSSE ILE     CLOUDY    51  48  89 NE8       30.30S
HILLSDALE      MOCLDY    41  37  86 N5        30.33R
HOWELL         CLOUDY    46  39  76 N3        30.33F

CITY           SKY/WX    TMP DP  RH WIND       PRES   REMARKS
JACKSON        MOCLDY    45  37  73 NW6       30.34S
LAMBERTVILLE   MOCLDY    46  41  83 NW3       30.31S
LANSING        PTCLDY    46  38  73 N6        30.36R
LAPEER         CLOUDY    45  41  88 CALM      30.35S
MASON          PTCLDY    42  38  85 NW3       30.34S
MONROE         CLOUDY    47  44  89 NW6       30.30F
MT. CLEMENS    MOCLDY    48  43  82 N10       30.32S
PONTIAC        MOCLDY    47  39  74 NE5       30.33S
PORT HOPE        N/A     43  32  65 MISG      30.34R
PORT HURON     MOCLDY    46  37  71 NE6       30.34S
TRI CITIES     CLEAR     43  37  79 N6        30.37R
MIDLAND        CLEAR     38  36  91 NW3       30.37R
TROY           CLOUDY    50  36  58 NE8       30.35R
SAGINAW HB     CLOUDY    47  41  80 NW6       30.36R
$$
MIZ043>046-050>051-056>058-064>065-071>073-077>080-231000-
SOUTHWEST LOWER MICHIGAN

CITY           SKY/WX    TMP DP  RH WIND       PRES   REMARKS
BATTLE CREEK   PTCLDY    41  37  86 NW5       30.35S
BENTON HARBOR  PTCLDY    39  37  92 N3        30.37S
BIG RAPIDS     CLEAR     36  35  96 CALM      30.37S
COLDWATER      MOCLDY    42  38  85 N3        30.34S
FREMONT        FAIR      37  36  97 CALM      30.39R
HOLLAND        CLEAR     43  40  89 N3        30.38R
GRAND RAPIDS   CLEAR     42  37  82 W6        30.38R
IONIA          FAIR      42  38  83 CALM      30.36R
KALAMAZOO      PTCLDY    41  36  82 N6        30.36R
LUDINGTON      MOCLDY    34  33  99 CALM      30.38R
MARSHALL       MOCLDY    39  36  88 CALM      30.34S
MOUNT PLEASANT CLEAR     39  39 100 CALM      30.37R
MUSKEGON       CLEAR     40  37  89 CALM      30.39R
SOUTH HAVEN    CLEAR     37  36  97 CALM      30.37S
$$
MIZ016>042-231000-
NORTHERN LOWER MICHIGAN

CITY           SKY/WX    TMP DP  RH WIND       PRES   REMARKS
ALPENA         PTCLDY    38  36  92 CALM      30.37S
BEAVER ISLAND    N/A     30  30 100 CALM      30.39R FOG
BELLAIRE       CLEAR     33  33  99 CALM      30.40R
CADILLAC       CLEAR     34  33  95 CALM      30.36R
CHARLEVOIX     CLEAR     33  33 100 CALM      30.39S
FRANKFORT      MOCLDY    40  37  90 CALM      30.39R
GAYLORD        CLEAR     39  34  82 W3        30.36R
HARBOR SPRINGS CLEAR     34  34  99 CALM      30.39S
HOUGHTON LAKE  CLEAR     35  33  92 CALM      30.38R
MANISTEE       CLOUDY    40  39  97 E3        30.38S
OSCODA         CLEAR     37  35  93 NW5       30.37R WCI  33
PELLSTON       CLEAR     31  29  92 CALM      30.38S
ROGERS CITY    MOCLDY    35  32  88 CALM      30.38S
TRAVERSE CITY  PTCLDY    36  34  92 CALM      30.37S
$$
MIZ007>008-015-231000-
EASTERN UPPER MICHIGAN

CITY           SKY/WX    TMP DP  RH WIND       PRES   REMARKS
KINROSS        CLEAR     31  30  96 W5        30.38R WCI  26
MACKINAC ISLAN CLEAR     35  35 100 NW5       30.38R WCI  30
NEWBERRY       CLEAR     30  30 100 CALM      30.37R
S. S. MARIE    CLEAR     33  30  88 SW3       30.36R
$$
MIZ004>006-011>014-085-231000-
CENTRAL UPPER MICHIGAN

CITY           SKY/WX    TMP DP  RH WIND       PRES   REMARKS
MANISTIQUE     CLEAR     31  30  95 CALM      30.38R
ESCANABA       CLEAR     33  33 100 CALM      30.38S
MENOMINEE      CLEAR     39  39 100 NW3       30.39R
SAWYER-GWINN   CLEAR     30  28  94 CALM      30.36S
MUNISING         N/A     33  30  88 SE7       30.36R WCI  27
$$
MIZ001>003-009>011-084-231000-
WESTERN UPPER MICHIGAN

CITY           SKY/WX    TMP DP  RH WIND       PRES   REMARKS
IRON MOUNTAIN  CLEAR     30  26  85 CALM      30.36R
HOUGHTON       CLEAR     42  28  57 W8        30.33R
COPPER HARBOR    N/A     43  29  57 W6        30.32S
IRONWOOD       CLEAR     30  28  92 W3        30.37R
$$

ABBREVIATIONS USED IN REMARKS
   TC - TEMPERATURE IN CELSIUS
  WCI - WIND CHILL INDEX
   HX - HEAT INDEX
  VSB - VISIBILITY




USA.gov is the U.S. government's official web portal to all federal, state and local government web resources and services.